Weather History for White Plains, NY

Change the Weather History Date:

Wednesday, November 6, 2013

  Actual Average Record
Temperature  
Mean Temperature 48 °F -  
Max Temperature 57 °F 52 °F 64 °F (2005)
Min Temperature 39 °F 37 °F 25 °F (1991)
Degree Days  
Heating Degree Days 17    
Moisture  
Dew Point 44 °F    
Average Humidity 78    
Maximum Humidity 93    
Minimum Humidity 55    
Precipitation  
Precipitation 0.00 in - - ()
Sea Level Pressure  
Sea Level Pressure 30.31 in    
Wind  
Wind Speed 3 mph (South)    
Max Wind Speed 10 mph    
Max Gust Speed 16 mph    
Visibility 10 miles    
Events      
Averages and records for this station are not official NWS values.
T = Trace of Precipitation, MM = Missing Value Source: NWS Daily Summary

Daily Weather History Graph

Daily Weather History Graph

Search for Another Location

Airport:

Trip Planner

Search our weather history database for the weather conditions in past years. The results will help you decide how hot, cold, wet, or windy it might be!

Date:

Astronomy

Nov. 06, 2013 Rise Set
Actual Time 6:31 AM EST 4:44 PM EST
Civil Twilight 6:03 AM EST 5:13 PM EST
Nautical Twilight 5:30 AM EST 5:46 PM EST
Astronomical Twilight 4:58 AM EST 6:18 PM EST
Moon 9:45 AM EST (11/6) 7:45 PM EST (11/6)
Length of Visible Light 11h 10m
Length of Day
10h 12m
Waxing Crescent, 13% of the Moon is Illuminated
Nov 6
Waxing Crescent
Nov 10
First Quarter
Nov 17
Full
Nov 25
Last Quarter
Dec 2
New

Hourly Weather History & Observations

Time (EST) Temp. Dew Point Humidity Pressure Visibility Wind Dir Wind Speed Gust Speed Precip Events Conditions
12:56 AM 45.0 °F 39.9 °F 82% 30.49 in 10.0 mi Calm Calm - N/A   Clear
1:56 AM 43.0 °F 39.0 °F 86% 30.48 in 10.0 mi Calm Calm - N/A   Clear
2:56 AM 44.1 °F 39.9 °F 85% 30.47 in 10.0 mi Calm Calm - N/A   Overcast
3:56 AM 42.1 °F 39.9 °F 92% 30.46 in 10.0 mi Calm Calm - N/A   Mostly Cloudy
4:56 AM 39.9 °F 37.9 °F 93% 30.45 in 10.0 mi Calm Calm - N/A   Clear
5:56 AM 41.0 °F 39.0 °F 93% 30.44 in 10.0 mi Calm Calm - N/A   Mostly Cloudy
6:56 AM 42.1 °F 39.9 °F 92% 30.43 in 10.0 mi Calm Calm - N/A   Partly Cloudy
7:56 AM 48.9 °F 45.0 °F 86% 30.43 in 10.0 mi Calm Calm - N/A   Scattered Clouds
8:56 AM 53.1 °F 45.0 °F 74% 30.41 in 10.0 mi South 4.6 mph - N/A   Scattered Clouds
9:56 AM 55.0 °F 43.0 °F 64% 30.38 in 10.0 mi South 8.1 mph - N/A   Mostly Cloudy
10:56 AM 55.9 °F 43.0 °F 62% 30.37 in 10.0 mi South 8.1 mph - N/A   Mostly Cloudy
11:56 AM 57.9 °F 43.0 °F 58% 30.33 in 10.0 mi Variable 6.9 mph - N/A   Mostly Cloudy
12:56 PM 57.9 °F 42.1 °F 56% 30.29 in 10.0 mi South 8.1 mph 16.1 mph N/A   Mostly Cloudy
1:56 PM 57.0 °F 43.0 °F 59% 30.27 in 10.0 mi South 9.2 mph - N/A   Mostly Cloudy
2:56 PM 57.0 °F 42.1 °F 57% 30.27 in 10.0 mi South 10.4 mph - N/A   Mostly Cloudy
3:56 PM 57.0 °F 41.0 °F 55% 30.25 in 10.0 mi Variable 5.8 mph - N/A   Mostly Cloudy
4:56 PM 52.0 °F 43.0 °F 71% 30.23 in 10.0 mi SSE 4.6 mph - N/A   Scattered Clouds
5:56 PM 53.1 °F 48.0 °F 83% 30.21 in 10.0 mi SE 5.8 mph - N/A   Mostly Cloudy
6:56 PM 53.1 °F 48.9 °F 86% 30.19 in 10.0 mi SSE 5.8 mph - N/A   Overcast
7:56 PM 53.1 °F 48.9 °F 86% 30.17 in 10.0 mi South 5.8 mph - N/A   Overcast
8:56 PM 53.1 °F 48.9 °F 86% 30.14 in 10.0 mi South 3.5 mph - N/A   Clear
9:56 PM 54.0 °F 48.9 °F 83% 30.12 in 10.0 mi South 4.6 mph - N/A   Clear
10:56 PM 54.0 °F 51.1 °F 90% 30.10 in 10.0 mi South 3.5 mph - N/A   Partly Cloudy
11:56 PM 54.0 °F 52.0 °F 93% 30.07 in 10.0 mi Calm Calm - N/A   Clear